Probability
0 0 0 0 0 0 0 0 0 0 0 0 0 0 0 1 2 2 1 1 3 5 5 5 6 7 6 4 3 4 3 1 0 0 0 0 0 0 0 0 0 0 0 0
0 0 0 0 0 0 0 0 0 0 0 0 0 0 0 0 1 2 2 2 4 5 5 6 7 8 6 4 4 4 3 1 1 1 1 0 0 0 0 0 0 0 0 0
0 0 0 0 0 0 0 0 0 0 0 0 0 0 0 0 1 2 3 2 3 4 5 5 6 7 6 5 4 3 3 2 2 2 1 0 0 0 0 0 0 0 0 0
0 0 0 0 0 0 0 0 0 0 0 0 0 0 0 0 0 1 3 3 2 3 4 4 5 4 4 5 4 3 3 4 4 3 1 0 0 0 0 0 0 0 0 0
0 0 0 0 0 0 0 0 0 0 0 0 0 0 0 0 0 1 2 3 3 4 5 5 4 3 3 4 4 4 5 6 6 5 3 1 1 0 0 0 0 0 0 0
0 0 0 0 0 0 0 0 0 0 0 0 0 0 0 0 0 1 2 3 3 4 6 6 4 3 4 5 6 6 8 7 7 8 6 3 1 0 0 0 0 0 0 1
0 0 0 0 0 0 0 0 0 0 0 0 0 0 0 0 0 0 1 2 3 4 6 6 5 4 5 6 7 8 8 7 7 8 6 3 1 0 0 0 0 0 1 2
0 0 0 0 0 0 0 0 0 0 0 0 0 0 0 0 0 0 1 1 2 3 6 7 6 5 6 7 8 8 7 6 5 5 4 2 1 0 0 0 0 0 1 2
0 0 0 0 0 0 0 0 0 0 0 0 0 0 0 0 0 0 0 0 0 2 5 7 6 5 6 7 7 7 6 5 4 3 2 2 2 1 0 0 0 0 0 1
0 0 0 0 0 0 0 0 0 0 1 1 1 0 0 0 0 0 0 0 0 1 3 6 5 5 6 7 7 7 5 4 4 2 1 1 1 0 0 0 0 0 0 0
0 0 0 0 0 0 0 0 0 0 1 2 2 1 0 0 0 0 0 0 0 1 3 5 5 5 7 8 9 8 5 4 4 3 1 0 0 0 0 0 0 0 0 1
0 0 0 0 0 0 0 0 0 0 0 1 1 1 0 0 0 0 0 0 0 2 5 6 4 5 7 9 9 7 4 4 4 3 2 1 0 0 0 0 1 1 1 1
0 0 0 0 0 0 0 0 0 0 0 0 0 0 0 0 0 0 1 0 1 3 6 6 4 4 6 8 7 5 4 4 4 3 3 1 1 0 0 1 1 2 2 1
0 0 0 0 0 0 0 0 0 0 0 0 0 0 0 0 0 0 0 0 1 3 6 6 4 3 5 7 7 6 5 5 4 3 3 3 2 1 0 1 2 2 1 0
0 0 0 0 0 0 0 0 0 0 0 0 0 0 0 0 0 0 0 0 0 2 4 5 4 3 4 7 8 8 6 4 3 3 3 3 3 2 2 2 2 1 0 0
0 0 0 0 0 0 0 0 0 0 0 0 0 0 0 0 0 0 0 0 0 0 1 2 3 3 4 7 9 8 6 3 3 3 3 4 4 4 4 3 1 0 0 1
0 0 0 0 0 0 0 0 0 0 0 0 0 0 0 0 0 0 0 0 0 0 0 1 2 3 5 6 8 8 6 3 2 3 4 5 5 5 4 2 1 0 0 1
0 0 0 0 0 0 0 0 0 0 0 0 0 0 0 0 0 0 0 0 0 0 0 1 2 4 5 5 7 7 5 3 2 2 4 5 5 4 2 1 0 0 0 1
0 0 0 0 0 0 0 0 0 0 0 0 0 0 0 0 0 0 0 0 0 0 0 1 3 4 4 4 5 6 4 2 1 2 3 4 3 2 1 0 0 0 0 0
0 0 0 0 0 0 0 0 0 0 0 0 0 0 0 0 0 0 0 0 0 0 1 2 3 2 3 3 3 4 3 2 1 2 2 2 1 1 0 0 0 0 0 0
0 0 0 0 0 0 0 0 0 0 0 0 0 0 0 0 0 0 0 0 0 1 2 3 2 1 2 2 2 2 3 2 2 2 1 0 0 0 0 0 0 0 0 0
0 0 0 0 0 0 0 0 0 0 0 0 0 0 0 0 0 0 0 0 1 2 3 3 2 1 1 2 2 2 3 2 2 2 1 0 0 0 0 0 0 0 0 0
0 0 0 0 0 0 0 0 0 0 0 0 0 0 0 0 0 0 0 1 3 4 4 2 1 1 2 3 3 2 2 1 1 1 0 0 0 0 0 0 0 0 0 0
0 0 0 0 0 0 0 0 0 0 0 0 0 0 0 0 0 0 0 1 4 5 4 2 0 1 2 2 2 1 1 0 0 0 0 0 0 0 0 0 0 0 0 0
0 0 0 0 0 0 0 0 0 0 0 0 0 0 0 0 0 0 0 1 4 4 3 1 0 0 1 1 1 0 0 0 0 0 0 0 0 0 0 0 0 0 0 0
0 0 0 0 0 0 0 0 0 0 0 0 0 0 0 0 0 0 0 1 3 3 1 0 0 0 0 0 0 0 0 0 0 0 0 0 0 0 0 0 0 0 0 0
Wind_Speed
5 5 5 5 5 6 6 5 4 3 5 4 5 5 6 6 5 5 5 5 5 5 5 6 7 6 5 5 4 5 5 3 3 2 2 2 2 2 2 2 3 3 3 3
4 4 4 3 4 6 7 6 5 2 4 3 5 6 5 6 7 5 5 5 5 6 6 6 7 7 6 6 4 5 5 3 3 2 2 2 2 1 1 2 2 2 2 3
4 2 3 3 5 7 6 5 5 4 3 6 5 6 7 7 7 6 5 4 4 6 7 6 6 6 6 6 5 4 5 4 3 3 2 2 2 1 2 2 1 1 2 2
3 3 4 5 5 6 6 4 6 6 6 5 7 5 6 8 7 7 6 5 5 5 5 6 6 5 5 5 5 4 4 4 4 3 2 2 2 1 1 1 0 1 2 2
3 3 4 6 5 5 5 5 7 8 8 8 8 6 4 7 7 8 7 6 5 5 6 6 6 5 5 4 4 4 4 4 4 4 3 2 1 1 1 1 1 0 1 1
6 3 3 5 6 5 6 7 9 8 7 9 9 7 3 4 7 7 7 7 6 5 5 6 6 5 4 4 4 4 4 4 4 3 3 3 2 2 2 1 1 0 0 1
7 5 3 2 4 4 6 6 4 4 5 6 4 5 2 3 4 5 5 5 5 5 5 6 6 6 5 5 4 3 4 3 3 3 3 3 3 3 2 2 1 1 0 0
7 5 4 3 4 5 6 6 4 4 4 4 5 4 3 4 4 4 4 4 4 5 6 6 6 6 5 5 5 4 3 3 3 3 2 2 2 2 2 2 2 1 1 1
7 4 3 4 4 6 5 5 7 7 9 8 4 3 3 4 4 4 4 3 4 4 6 6 6 6 6 5 5 4 4 3 3 3 3 2 2 2 1 2 2 1 1 0
8 7 5 3 3 5 6 6 4 4 5 6 4 3 2 5 4 4 4 4 4 4 5 6 6 6 5 5 4 4 4 4 3 3 2 2 2 2 1 1 1 1 1 0
8 8 6 4 5 5 5 5 5 4 5 5 4 1 2 3 4 4 4 4 4 5 5 5 5 5 5 5 5 4 4 4 3 3 2 2 2 2 2 1 1 1 0 0
5 7 8 7 4 4 4 6 6 5 5 5 5 2 2 3 2 2 3 3 3 5 5 5 5 5 5 5 4 4 4 4 3 3 2 2 2 2 1 1 1 0 0 0
5 6 7 5 4 4 4 5 7 7 6 6 6 3 1 1 2 2 2 2 2 4 5 4 4 4 5 5 5 4 4 4 4 3 3 2 2 1 1 1 1 0 0 0
4 7 7 8 5 3 5 6 6 7 6 7 7 6 3 1 1 1 0 2 2 3 5 5 4 4 4 4 4 4 3 3 3 3 3 2 2 1 1 1 1 1 1 1
4 8 10 11 10 8 8 8 8 9 9 9 9 8 6 2 1 1 0 1 2 2 3 5 4 4 4 4 4 4 3 3 3 3 2 2 2 2 1 2 1 1 1 2
5 8 10 12 11 10 12 11 11 11 11 11 10 9 4 5 3 1 1 1 1 1 2 3 3 4 4 4 3 3 3 3 3 3 2 2 2 2 2 2 2 2 1 1
5 8 9 10 9 11 12 9 10 9 8 9 9 7 4 5 3 2 1 1 1 0 0 1 2 3 3 3 4 4 3 3 4 3 3 2 2 2 1 1 2 1 0 1
8 8 6 8 8 11 4 2 4 6 7 6 6 5 4 3 2 1 2 1 0 1 1 1 1 1 2 2 3 3 3 3 3 3 3 2 2 2 2 1 1 1 1 1
8 8 6 6 8 10 6 3 3 5 6 4 6 5 3 1 1 1 3 3 2 2 2 1 1 1 2 3 3 4 3 3 3 3 2 2 2 2 2 1 1 0 0 1
6 7 7 7 8 8 2 3 4 4 5 4 5 4 2 2 2 1 2 3 3 3 2 2 2 1 2 2 4 4 4 4 3 3 2 2 2 2 2 1 1 1 0 0
5 6 8 9 10 7 2 4 3 3 3 5 5 4 3 3 2 2 2 2 2 2 2 2 2 1 1 2 3 4 3 3 3 3 2 2 2 2 1 1 1 0 0 0
6 5 6 6 8 5 3 2 2 3 4 5 5 4 3 3 3 3 2 2 2 2 2 2 2 1 1 2 2 3 3 3 3 3 3 2 2 1 1 1 1 0 0 0
5 4 3 3 3 2 2 3 4 5 6 6 5 3 2 3 3 3 2 1 1 1 1 2 2 1 1 2 2 2 2 3 3 3 3 2 2 2 2 1 1 0 0 0
4 4 5 6 4 4 4 4 4 4 6 7 6 5 3 4 3 3 2 1 1 1 1 1 1 2 1 1 1 2 2 3 4 3 3 2 2 2 1 1 1 1 1 1
5 5 7 8 6 6 4 5 6 6 5 5 6 5 4 4 3 3 2 1 1 0 0 0 1 1 1 1 1 2 3 3 3 3 3 2 2 2 1 1 0 1 0 1
6 6 7 6 6 6 6 6 7 6 6 5 5 5 4 4 3 3 2 1 0 0 0 0 1 1 1 1 1 2 3 3 4 3 2 2 1 1 1 1 1 1 1 0
Wind_Direction
212 219 224 230 246 271 271 254 239 197 170 194 208 218 189 185 202 204 197 193 176 163 159 150 145 141 132 123 122 119 121 114 102 91 84 86 74 67 61 54 58 37 25 36
222 236 248 252 260 265 264 260 258 207 174 216 225 232 205 187 195 201 202 201 176 160 155 153 147 151 148 145 149 141 138 132 120 103 91 94 93 82 90 63 57 43 28 28
243 251 264 253 256 260 258 270 278 265 230 230 234 236 211 196 192 191 200 206 180 169 164 155 151 154 153 155 162 153 144 138 127 116 101 93 93 68 55 58 41 9 35 44
255 266 283 272 264 280 276 290 287 270 260 255 235 254 205 192 194 191 191 195 188 173 163 157 153 150 155 154 157 156 150 145 135 126 115 112 114 120 150 124 105 355 25 37
258 254 271 279 286 291 301 296 277 270 262 263 245 250 217 180 193 195 191 191 189 170 160 156 154 154 150 147 154 156 149 137 132 134 142 147 141 159 153 138 134 92 21 33
265 255 271 285 290 281 283 274 263 254 254 253 242 236 222 195 199 186 184 185 178 170 155 149 141 138 134 129 136 145 144 140 141 147 157 163 168 182 169 147 129 115 49 5
246 226 231 272 282 269 278 280 269 235 228 238 232 232 191 158 161 162 168 169 171 163 153 145 142 147 145 144 141 139 143 142 141 149 164 180 190 195 178 166 172 170 164 300
258 235 213 229 262 269 260 266 273 282 282 283 246 225 147 123 125 131 135 147 165 165 155 152 150 154 154 152 150 149 143 151 156 165 180 185 181 191 185 182 172 180 199 205
298 275 212 216 243 270 271 265 277 284 283 276 247 188 152 134 138 145 149 159 163 156 156 154 153 158 159 157 156 157 154 154 163 178 189 188 180 175 169 181 169 178 212 223
292 290 265 213 226 233 262 285 286 276 282 278 265 246 195 159 179 166 171 175 161 149 156 154 157 163 160 155 155 159 160 170 179 186 196 198 179 163 157 150 131 156 213 215
284 275 265 239 230 250 242 257 269 275 275 283 282 303 35 149 172 171 174 168 164 156 164 158 161 162 155 150 158 168 169 175 180 189 190 188 180 179 174 160 136 160 231 190
278 277 268 253 238 233 245 260 263 264 273 282 288 293 46 55 83 134 160 163 167 157 158 158 160 156 153 156 163 174 177 174 173 176 176 192 179 172 180 165 145 183 257 344
303 274 271 248 216 213 237 253 267 268 273 271 269 261 137 66 68 64 97 119 136 146 147 148 151 155 160 164 168 173 180 172 165 167 168 172 147 148 176 173 150 152 60 15
287 269 270 273 292 284 267 267 263 260 260 268 267 279 283 358 39 17 120 143 142 155 154 155 156 162 165 165 170 171 175 163 161 161 164 165 153 163 170 135 110 68 42 8
261 265 272 278 283 285 284 277 266 257 260 266 280 286 300 318 299 293 292 149 153 163 162 161 162 167 166 166 172 168 163 158 159 159 163 155 140 135 99 77 73 59 28 2
252 268 274 274 269 271 274 271 262 260 263 265 275 280 300 305 309 322 53 52 63 123 155 162 167 172 172 171 173 168 165 165 162 161 154 132 116 105 96 83 70 57 31 12
263 267 273 273 274 277 265 261 257 254 255 260 267 276 292 292 300 325 44 51 16 353 83 149 174 178 175 172 174 175 173 165 159 152 138 124 116 113 110 91 85 70 33 50
272 272 268 274 277 261 260 286 280 271 267 274 281 290 289 294 320 359 36 65 14 16 85 99 132 154 161 164 168 163 156 149 147 142 135 128 126 126 116 107 112 90 40 40
250 258 262 263 265 268 263 278 292 283 276 289 295 296 295 300 325 18 33 30 38 51 66 79 74 109 147 154 154 145 143 144 146 147 147 142 139 134 132 151 161 121 55 356
240 242 251 258 261 263 293 339 332 296 277 358 342 337 332 326 288 298 31 33 35 47 61 76 80 85 124 141 144 147 157 156 160 155 146 135 137 142 159 181 154 109 102 334
240 231 238 251 257 262 353 340 310 273 327 357 345 353 357 332 340 2 23 38 45 55 66 87 99 92 115 141 144 156 161 170 160 141 138 143 146 149 150 124 110 98 106 99
262 254 245 246 253 260 26 348 321 340 344 342 355 9 5 351 352 354 10 35 52 56 75 99 113 108 112 142 151 159 173 161 141 142 143 144 140 140 116 111 107 73 126 174
259 270 283 265 262 327 338 328 341 347 335 342 349 353 353 326 318 329 339 0 68 78 93 99 115 126 134 145 158 169 172 140 134 134 137 138 132 132 132 133 133 147 229 211
282 302 285 279 279 305 314 329 333 338 335 335 335 339 338 323 324 331 324 337 52 76 79 91 139 156 153 149 158 168 155 138 139 142 144 140 138 136 131 138 159 172 212 234
299 294 285 279 290 299 303 333 335 334 330 330 330 331 327 323 317 314 310 322 356 48 70 185 193 171 162 155 160 156 144 145 151 151 151 145 145 150 140 112 101 165 246 235
275 276 275 284 316 310 313 325 334 332 331 330 326 322 321 318 314 318 317 326 316 278 245 231 211 198 196 159 160 140 141 150 153 155 154 150 150 142 131 121 34 8 282 310